Location: Unspecified
(0.0000°N, 0.0000°E)
Time: 01:44:29
(UTC+00:00)

Explorer 11/Cluster Stage 4 - Pass Details

Date: 22 November 2019
Orbit: 467 x 1259 km, 28.8° (Epoch: 11 December)

Event Time Altitude Azimuth Distance (km) Brightness Sun altitude
Rises 00:55:14 0° 315° (NW) 3,968 - -63.8°
Reaches altitude 10° 00:58:09 10° 323° (NW) 3,090 - -63.3°
Maximum altitude 01:05:29 40° 30° (NNE) 1,748 - -62.1°
Drops below altitude 10° 01:13:04 10° 97° (E) 3,212 - -60.7°
Exits shadow 01:15:02 - 102° (ESE) 3,798 10.4 -60.4°
Sets 01:16:08 0° 104° (ESE) 4,138 10.6 -60.2°
